Location: B?jaj?g
(11.7167°N, 92.6667°E)
Time: 17:28:41
(UTC+00:00)

Cosmos 1378 - Pass Details

Date: 18 September 2020
Orbit: 492 x 500 km, 82.5° (Epoch: 30 October)

Event Time Altitude Azimuth Distance (km) Brightness Sun altitude
Rises 12:11:09 0° 2° (N) 2,563 6.8 -6.5°
Reaches altitude 10° 12:13:17 10° 7° (N) 1,682 5.8 -7.0°
Maximum altitude 12:16:54 54° 86° (E) 603 3.2 -7.9°
Drops below altitude 10° 12:20:30 10° 164° (SSE) 1,687 5.6 -8.8°
Sets 12:22:39 0° 168° (SSE) 2,570 6.6 -9.3°
